GW7141 Weather Reports


time (UTC)temp
F
wind
direction
speed
knots
gust
knots
rain 1hr
in
rain 24hr
in
rain mn
in
humidity
%
barometer
mb
20260503010027 39 129 7.0 11.3 0.00 0.00 0.00 74 1007.0
20260503004503 40 136 12.2 13.0 0.00 0.00 0.00 71 1006.9
20260503003003 41 110 7.8 14.8 0.00 0.00 0.00 69 1007.1
20260503001506 42 119 14.8 17.4 0.00 0.00 0.00 63 1007.0
20260503000004 62 287 5.2 9.6 0.00 0.00 0.00 35 1007.0
20260502234504 62 287 9.6 13.9 0.00 0.00 0.00 36 1007.1
20260502233003 62 287 11.3 13.0 0.00 0.00 0.00 36 1006.9
20260502231503 62 282 10.4 16.5 0.00 0.00 0.00 34 1007.5
20260502230009 63 287 13.0 20.0 0.00 0.00 0.00 34 1007.6
20260502221504 63 330 14.8 18.2 0.00 0.00 0.00 32 1008.0
20260502220005 63 288 13.0 20.0 0.00 0.00 0.00 31 1007.3
20260502214505 55 348 13.0 18.2 0.00 0.00 0.00 43 1008.3
20260502210005 50 139 9.6 10.4 0.00 0.00 0.00 42 1009.1
20260502204504 49 141 6.1 8.7 0.00 0.00 0.00 44 1009.4
20260502203006 50 155 4.3 7.8 0.00 0.00 0.00 44 1009.8
20260502201509 50 147 7.8 8.7 0.00 0.00 0.00 43 1009.9
20260502194505 48 141 5.2 6.1 0.00 0.00 0.00 46 1010.6
20260502193008 47 141 4.3 6.1 0.00 0.00 0.00 47 1010.9
20260502191508 47 146 6.1 7.0 0.00 0.00 0.00 49 1011.1
20260502184523 46 147 3.5 5.2 0.00 0.00 0.00 52 1011.9
20260502183019 45 148 4.3 6.1 0.00 0.00 0.00 54 1012.2
20260502181508 44 155 3.5 5.2 0.00 0.00 0.00 58 1012.5
20260502163016 43 178 4.3 5.2 0.00 0.00 0.00 58 1014.3
20260502161513 41 183 4.3 6.1 0.00 0.00 0.00 59 1014.5
20260502151515 38 231 4.3 5.2 0.00 0.00 0.00 74 1015.5
20260502123011 39 231 0.0 1.7 0.00 0.00 0.00 72 1016.7
20260502121520 38 231 1.7 2.6 0.00 0.00 0.00 73 1016.6
20260502114520 36 231 2.6 2.6 0.00 0.00 0.00 71 1016.7
20260502113010 35 229 1.7 2.6 0.00 0.00 0.00 72 1012.5
20260502111519 34 226 1.7 2.6 0.00 0.00 0.00 78 1016.7
20260502110021 0 0.0 0.0 0.00 0.00 0.00 1015.8
20260502104520 0 0.0 0.0 0.00 0.00 0.00 1016.5
20260502103028 0 0.0 0.0 0.00 0.00 0.00 1016.7
20260502101534 0 0.0 0.0 0.00 0.00 0.00 1016.7
20260502091522 0 0.0 0.0 0.00 0.00 0.00 1016.8
20260502071509 36 226 0.0 1.7 0.00 0.00 0.00 75 1017.3
20260502070012 36 226 0.0 1.7 0.00 0.00 0.00 75 1017.4
20260502061505 37 226 0.9 0.9 0.00 0.00 0.00 69 1017.5
20260502053018 38 226 0.0 1.7 0.00 0.00 0.00 61 1017.5
20260502051528 39 226 0.9 3.5 0.00 0.00 0.00 60 1017.5
20260502050008 38 224 3.5 3.5 0.00 0.00 0.00 61 1017.6
20260502044512 38 224 1.7 2.6 0.00 0.00 0.00 67 1017.7
20260502041524 39 223 0.9 2.6 0.00 0.00 0.00 64 1017.7
20260502040022 39 221 3.5 4.3 0.00 0.00 0.00 67 1017.7
20260502030022 39 219 0.0 2.6 0.00 0.00 0.00 64 1017.8
20260502024525 39 210 0.0 1.7 0.00 0.00 0.00 62 1017.7
20260502023026 40 210 0.0 1.7 0.00 0.00 0.00 58 1017.5
20260502021518 40 210 0.0 2.6 0.00 0.00 0.00 59 1017.5
20260502014527 41 153 5.2 7.8 0.00 0.00 0.00 53 1017.3
20260502013026 40 143 6.1 7.8 0.00 0.00 0.00 60 1017.3
20260502011515 40 141 6.1 7.0 0.00 0.00 0.00 57 1017.1